Storm Lake, IA

5:26 PM CDT on September 23, 2017 (GMT -0500)
Storm Lake Municipal

Weather History for KSLB - June, 2014

Change the Weather History Date:

Sunday, June 15, 2014

  Actual Average Record
Temperature  
Mean Temperature 68 °F -  
Max Temperature 75 °F 78 °F 91 °F (2007)
Min Temperature 60 °F 58 °F 50 °F (1999)
Cooling Degree Days 2    
Growing Degree Days 18 (Base 50)    
Moisture  
Dew Point 59 °F    
Average Humidity 80    
Maximum Humidity 100    
Minimum Humidity 50    
Precipitation  
Precipitation 5.32 in - - ()
Sea Level Pressure  
Sea Level Pressure 29.74 in    
Wind  
Wind Speed 13 mph (WSW)    
Max Wind Speed 33 mph    
Max Gust Speed 40 mph    
Visibility 9 miles    
Events Rain    
Averages and records for this station are not official NWS values.
T = Trace of Precipitation, MM = Missing Value Source: NWS Daily Summary

Daily Weather History Graph

Daily Weather History Graph

Search for Another Location

Airport or City:

Trip Planner

Search our weather history database for the weather conditions in past years. The results will help you decide how hot, cold, wet, or windy it might be!

Date:

Astronomy

Jun. 15, 2014 Rise Set
Actual Time 5:42 AM CDT 9:00 PM CDT
Civil Twilight 5:07 AM CDT 9:35 PM CDT
Nautical Twilight 4:22 AM CDT 10:20 PM CDT
Astronomical Twilight 3:27 AM CDT 11:16 PM CDT
Moon 11:07 PM CDT (6/15) 8:40 AM CDT (6/15)
Length of Visible Light 16h 27m
Length of Day
15h 17m
Waning Gibbous, 91% of the Moon is Illuminated
Jun 15
Waning Gibbous
Jun 19
Last Quarter
Jun 27
New
Jul 5
First Quarter
Jul 12
Full

Hourly Weather History & Observations

Time (CDT) Temp. Dew Point Humidity Pressure Visibility Wind Dir Wind Speed Gust Speed Precip Events Conditions
12:15 AM 62.6 °F 62.6 °F 100% 29.65 in 2.0 mi Variable 6.9 mph 12.7 mph N/A Rain Heavy Rain
12:35 AM 62.6 °F 62.6 °F 100% 29.69 in 2.0 mi WNW 26.5 mph 33.4 mph N/A Rain Heavy Rain
12:55 AM 60.8 °F 60.8 °F 100% 29.65 in 1.2 mi Calm Calm 13.8 mph 1.15 in Rain Heavy Rain
1:15 AM 60.8 °F 60.8 °F 100% 29.63 in 4.0 mi South 6.9 mph - N/A Rain Light Rain
1:35 AM 60.8 °F 60.8 °F 100% 29.60 in 4.0 mi East 5.8 mph 11.5 mph N/A Rain Light Rain
1:55 AM 60.8 °F 60.8 °F 100% 29.62 in 3.0 mi Calm Calm - 0.31 in Rain Rain
2:15 AM 60.8 °F 60.8 °F 100% 29.64 in 2.0 mi Variable 3.5 mph - N/A Rain Heavy Rain
2:35 AM 60.8 °F 60.8 °F 100% 29.62 in 3.0 mi North 4.6 mph 11.5 mph N/A Rain Light Rain
2:55 AM 60.8 °F 60.8 °F 100% 29.57 in 3.0 mi ENE 13.8 mph - 0.15 in Rain Rain
3:15 AM 60.8 °F 60.8 °F 100% 29.55 in 5.0 mi ENE 11.5 mph 21.9 mph N/A Rain Light Rain
3:35 AM 60.8 °F 60.8 °F 100% 29.54 in 3.0 mi NE 10.4 mph 21.9 mph N/A Rain Heavy Rain
3:55 AM 60.8 °F 60.8 °F 100% 29.60 in 1.0 mi WNW 33.4 mph 40.3 mph 0.36 in Rain Heavy Rain
4:15 AM 60.8 °F 60.8 °F 100% 29.52 in 6.0 mi North 20.7 mph 29.9 mph N/A Rain Light Rain
4:35 AM 62.6 °F 62.6 °F 100% 29.53 in 10.0 mi North 13.8 mph - N/A Rain Light Rain
4:55 AM 60.8 °F 60.8 °F 100% 29.55 in 10.0 mi WNW 15.0 mph - 3.29 in   Overcast
5:15 AM 60.8 °F 60.8 °F 100% 29.57 in 10.0 mi West 12.7 mph - N/A   Overcast
5:35 AM 60.8 °F 60.8 °F 100% 29.57 in 10.0 mi West 16.1 mph - N/A   Overcast
5:55 AM 60.8 °F 60.8 °F 100% 29.58 in 10.0 mi WNW 15.0 mph - 0.06 in   Overcast
6:15 AM 60.8 °F 60.8 °F 100% 29.55 in 10.0 mi NNW 8.1 mph - N/A   Mostly Cloudy
6:35 AM 60.8 °F 60.8 °F 100% 29.53 in 10.0 mi NNE 6.9 mph - N/A   Mostly Cloudy
6:55 AM 60.8 °F 60.8 °F 100% 29.56 in 10.0 mi West 4.6 mph - N/A   Partly Cloudy
7:15 AM 60.8 °F 60.8 °F 100% 29.60 in 10.0 mi WSW 16.1 mph - N/A   Partly Cloudy
7:35 AM 62.6 °F 62.6 °F 100% 29.61 in 10.0 mi WSW 16.1 mph 23.0 mph N/A   Partly Cloudy
7:55 AM 62.6 °F 62.6 °F 100% 29.63 in 10.0 mi WSW 18.4 mph - N/A   Mostly Cloudy
8:15 AM 62.6 °F 62.6 °F 100% 29.63 in 10.0 mi West 18.4 mph - N/A   Overcast
8:35 AM 64.4 °F 64.4 °F 100% 29.64 in 10.0 mi WSW 17.3 mph 25.3 mph N/A   Overcast
8:55 AM 64.4 °F 64.4 °F 100% 29.66 in 10.0 mi West 20.7 mph 29.9 mph N/A   Overcast
9:15 AM 62.6 °F 62.6 °F 100% 29.67 in 9.0 mi West 18.4 mph 27.6 mph N/A   Overcast
9:35 AM 62.6 °F 62.6 °F 100% 29.69 in 9.0 mi West 20.7 mph - N/A   Overcast
9:55 AM 64.4 °F 62.6 °F 94% 29.70 in 10.0 mi West 17.3 mph 25.3 mph N/A   Overcast
10:15 AM 64.4 °F 62.6 °F 94% 29.72 in 10.0 mi West 19.6 mph 26.5 mph N/A   Overcast
10:35 AM 66.2 °F 60.8 °F 83% 29.73 in 10.0 mi West 17.3 mph 24.2 mph N/A   Overcast
10:55 AM 66.2 °F 60.8 °F 83% 29.75 in 10.0 mi West 18.4 mph 26.5 mph N/A   Overcast
11:15 AM 68.0 °F 60.8 °F 78% 29.76 in 10.0 mi West 20.7 mph - N/A   Overcast
11:35 AM 68.0 °F 59.0 °F 73% 29.77 in 10.0 mi West 20.7 mph 26.5 mph N/A   Mostly Cloudy
11:55 AM 69.8 °F 59.0 °F 68% 29.78 in 10.0 mi West 18.4 mph 26.5 mph N/A   Scattered Clouds
12:15 PM 69.8 °F 59.0 °F 68% 29.79 in 10.0 mi West 18.4 mph 24.2 mph N/A   Scattered Clouds
12:35 PM 69.8 °F 59.0 °F 68% 29.81 in 10.0 mi West 19.6 mph - N/A   Mostly Cloudy
12:55 PM 71.6 °F 59.0 °F 64% 29.81 in 10.0 mi West 16.1 mph 23.0 mph N/A   Scattered Clouds
1:15 PM 71.6 °F 59.0 °F 64% 29.82 in 10.0 mi West 18.4 mph 24.2 mph N/A   Partly Cloudy
1:35 PM 71.6 °F 59.0 °F 64% 29.83 in 10.0 mi West 16.1 mph 23.0 mph N/A   Partly Cloudy
1:55 PM 73.4 °F 59.0 °F 61% 29.83 in 10.0 mi West 17.3 mph - N/A   Partly Cloudy
2:15 PM 73.4 °F 59.0 °F 61% 29.82 in 10.0 mi West 18.4 mph 24.2 mph N/A   Partly Cloudy
2:35 PM 73.4 °F 59.0 °F 61% 29.82 in 10.0 mi West 19.6 mph - N/A   Partly Cloudy
2:55 PM 73.4 °F 59.0 °F 61% 29.83 in 10.0 mi West 19.6 mph 26.5 mph N/A   Scattered Clouds
3:15 PM 73.4 °F 57.2 °F 57% 29.83 in 10.0 mi West 15.0 mph 23.0 mph N/A   Scattered Clouds
3:35 PM 75.2 °F 59.0 °F 57% 29.83 in 10.0 mi West 19.6 mph 27.6 mph N/A   Partly Cloudy
3:55 PM 75.2 °F 59.0 °F 57% 29.82 in 10.0 mi West 16.1 mph 24.2 mph N/A   Partly Cloudy
4:15 PM 75.2 °F 57.2 °F 53% 29.83 in 10.0 mi West 18.4 mph - N/A   Partly Cloudy
4:35 PM 75.2 °F 57.2 °F 53% 29.83 in 10.0 mi West 17.3 mph - N/A   Partly Cloudy
4:55 PM 75.2 °F 55.4 °F 50% 29.83 in 10.0 mi West 16.1 mph 23.0 mph N/A   Clear
5:15 PM 75.2 °F 55.4 °F 50% 29.84 in 10.0 mi West 15.0 mph 23.0 mph N/A   Clear
5:35 PM 75.2 °F 57.2 °F 53% 29.84 in 10.0 mi WSW 12.7 mph - N/A   Partly Cloudy
5:55 PM 73.4 °F 55.4 °F 53% 29.84 in 10.0 mi WSW 11.5 mph 20.7 mph N/A   Partly Cloudy
6:15 PM 75.2 °F 55.4 °F 50% 29.84 in 10.0 mi West 12.7 mph - N/A   Scattered Clouds
6:35 PM 75.2 °F 55.4 °F 50% 29.85 in 10.0 mi SW 11.5 mph - N/A   Partly Cloudy
6:55 PM 75.2 °F 55.4 °F 50% 29.85 in 10.0 mi SW 16.1 mph - N/A   Clear
7:15 PM 75.2 °F 55.4 °F 50% 29.86 in 10.0 mi SW 13.8 mph - N/A   Clear
7:35 PM 73.4 °F 55.4 °F 53% 29.87 in 10.0 mi SW 12.7 mph - N/A   Clear
7:55 PM 73.4 °F 57.2 °F 57% 29.88 in 10.0 mi SW 12.7 mph - N/A   Clear
8:15 PM 71.6 °F 55.4 °F 57% 29.88 in 10.0 mi SW 10.4 mph - N/A   Clear
8:35 PM 69.8 °F 57.2 °F 64% 29.88 in 10.0 mi SW 9.2 mph - N/A   Clear
8:55 PM 68.0 °F 57.2 °F 68% 29.89 in 10.0 mi SW 6.9 mph - N/A   Clear
9:15 PM 66.2 °F 57.2 °F 73% 29.89 in 10.0 mi SW 5.8 mph - N/A   Clear
9:35 PM 64.4 °F 57.2 °F 77% 29.90 in 10.0 mi SSW 6.9 mph - N/A   Clear
9:55 PM 64.4 °F 57.2 °F 77% 29.90 in 10.0 mi SSW 8.1 mph - N/A   Clear
10:15 PM 64.4 °F 57.2 °F 77% 29.91 in 10.0 mi SSW 6.9 mph - N/A   Clear
10:35 PM 64.4 °F 57.2 °F 77% 29.92 in 10.0 mi SSW 5.8 mph - N/A   Clear
10:55 PM 64.4 °F 57.2 °F 77% 29.92 in 10.0 mi SSW 6.9 mph - N/A   Clear
11:15 PM 62.6 °F 57.2 °F 82% 29.92 in 10.0 mi SSW 6.9 mph - N/A   Clear
11:35 PM 62.6 °F 57.2 °F 82% 29.93 in 10.0 mi South 6.9 mph - N/A   Clear
11:55 PM 62.6 °F 57.2 °F 82% 29.93 in 10.0 mi South 8.1 mph - N/A   Clear